Weather History for KMAE - October, 2012

Change the Weather History Date:

Friday, October 19, 2012

  Actual Average Record
Temperature  
Mean Temperature 72 °F 63 °F  
Max Temperature 86 °F 78 °F 86 °F (2003)
Min Temperature 57 °F 48 °F 42 °F (2006)
Degree Days  
Heating Degree Days 0    
Month to date heating degree days 16  
Since 1 July heating degree days 16  
Cooling Degree Days 7    
Month to date cooling degree days 89  
Year to date cooling degree days 1733  
Growing Degree Days 20 (Base 50)    
Moisture  
Dew Point 55 °F    
Average Humidity 61    
Maximum Humidity 90    
Minimum Humidity 32    
Precipitation  
Precipitation 0.00 in 0.03 in 0.79 in (2004)
Month to date precipitation T 0.33  
Year to date precipitation 6.22 8.62  
Since 1 July precipitation T 0.62  
Snow  
Snow 0.00 in - - ()
Month to date snowfall 0.0  
Since 1 July snowfall 0.0  
Since 1 September snowfall 0.0  
Snow Depth 0.00 in    
Sea Level Pressure  
Sea Level Pressure 29.96 in    
Wind  
Wind Speed 5 mph (NNW)    
Max Wind Speed 13 mph    
Max Gust Speed 15 mph    
Visibility 10 miles    
Events      
T = Trace of Precipitation, MM = Missing Value Source: NWS Daily Summary

Daily Weather History Graph

Daily Weather History Graph

Search for Another Location

Airport or City:

Trip Planner

Search our weather history database for the weather conditions in past years. The results will help you decide how hot, cold, wet, or windy it might be!

Date:

Astronomy

Oct. 19, 2012 Rise Set
Actual Time 7:12 AM PDT 6:17 PM PDT
Civil Twilight 6:46 AM PDT 6:43 PM PDT
Nautical Twilight 6:15 AM PDT 7:14 PM PDT
Astronomical Twilight 5:45 AM PDT 7:44 PM PDT
Moon 11:55 AM PDT (10/19) 10:06 PM PDT (10/19)
Length of Visible Light 11h 57m
Length of Day
11h 05m
Waxing Crescent, 24% of the Moon is Illuminated
Oct 19
Waxing Crescent
Oct 21
First Quarter
Oct 29
Full
Nov 6
Last Quarter
Nov 13
New

Hourly Weather History & Observations

Time (PDT) Temp. Heat Index Dew Point Humidity Pressure Visibility Wind Dir Wind Speed Gust Speed Precip Events Conditions
12:53 AM 68.0 °F - 54.0 °F 61% 29.98 in 10.0 mi WNW 8.1 mph - N/A   Clear
1:53 AM 66.9 °F - 53.1 °F 61% 29.98 in 10.0 mi WNW 8.1 mph - N/A   Clear
2:53 AM 64.9 °F - 53.1 °F 65% 29.98 in 10.0 mi NW 9.2 mph - N/A   Clear
3:53 AM 62.1 °F - 52.0 °F 70% 29.96 in 10.0 mi NW 5.8 mph - N/A   Clear
4:53 AM 60.1 °F - 52.0 °F 75% 29.97 in 10.0 mi NNW 5.8 mph - N/A   Clear
5:53 AM 59.0 °F - 52.0 °F 78% 29.98 in 10.0 mi Calm Calm - N/A   Clear
6:53 AM 57.0 °F - 53.1 °F 87% 30.00 in 10.0 mi NNW 4.6 mph - N/A   Clear
7:53 AM 59.0 °F - 55.9 °F 90% 30.02 in 10.0 mi NNW 3.5 mph - N/A   Partly Cloudy
8:02 AM 60.8 °F - 57.2 °F 88% 30.02 in 10.0 mi NW 3.5 mph - N/A   Mostly Cloudy
8:53 AM 62.1 °F - 59.0 °F 90% 30.04 in 10.0 mi NW 6.9 mph - N/A   Overcast
9:30 AM 64.4 °F - 59.0 °F 83% 30.05 in 10.0 mi NW 8.1 mph - N/A   Scattered Clouds
9:53 AM 66.9 °F - 57.9 °F 73% 30.04 in 10.0 mi NW 8.1 mph - N/A   Clear
10:53 AM 73.0 °F - 57.0 °F 57% 30.03 in 10.0 mi NNW 5.8 mph - N/A   Clear
11:53 AM 78.1 °F - 54.0 °F 43% 30.01 in 10.0 mi NNE 8.1 mph - N/A   Clear
12:53 PM 81.0 °F 80.5 °F 54.0 °F 39% 29.99 in 10.0 mi North 8.1 mph - N/A   Clear
1:53 PM 84.0 °F 82.5 °F 53.1 °F 34% 29.95 in 10.0 mi North 9.2 mph - N/A   Clear
2:53 PM 84.9 °F 83.9 °F 57.0 °F 38% 29.92 in 10.0 mi NNW 10.4 mph - N/A   Clear
3:53 PM 84.9 °F 83.6 °F 55.0 °F 36% 29.90 in 10.0 mi North 6.9 mph - N/A   Clear
4:53 PM 84.9 °F - 52.0 °F 32% 29.89 in 10.0 mi North 6.9 mph - N/A   Clear
5:53 PM 80.1 °F - 51.1 °F 36% 29.88 in 10.0 mi NW 6.9 mph - N/A   Clear
6:53 PM 73.9 °F - 55.0 °F 52% 29.88 in 10.0 mi NNW 5.8 mph - N/A   Clear
7:53 PM 66.9 °F - 55.9 °F 68% 29.89 in 10.0 mi Calm Calm - N/A   Clear
8:53 PM 64.0 °F - 55.9 °F 75% 29.89 in 10.0 mi Calm Calm - N/A   Clear
9:53 PM 66.9 °F - 55.9 °F 68% 29.89 in 10.0 mi NNW 5.8 mph - N/A   Clear
10:53 PM 62.1 °F - 54.0 °F 75% 29.89 in 10.0 mi Calm Calm - N/A   Clear
11:53 PM 61.0 °F - 55.9 °F 83% 29.89 in 10.0 mi North 4.6 mph - N/A   Clear